sat.trackr.live / text

‹ back to catalog

STARLINK-31576

NORAD 59208 · 2024-046H

PAYLOAD ACTIVE UNKNOWN

§ Identity

Operator
Country
US
Launch date
2024-03-11
Launch site
AFWTR
Launch vehicle
Mass (kg)
RCS (m²)

Purposes: comms

External: N2YO · Heavens-Above · Gunter

§ Orbital elements

Epoch: 2026-09-20T15:54:43.880832Z

Period
93.85 min
Inclination
53.1603°
Eccentricity
0.0001258
Mean motion
15.34399343 rev/d
Perigee alt
461.8 km
Apogee alt
463.6 km
Semi-major
6,840.8 km
B*
1.4705e-4
RAAN
325.2579°
Arg perigee
80.0900°
Mean anomaly
280.0245°
Rev number
14,296

§ Raw data

STARLINK-315761 59208U 24046H   26263.66300788  .00004595  00000+0  14705-3 0  99992 59208  53.1603 325.2579 0001258  80.0900 280.0245 15.34399343142967

JSON: /api/v1/satellites/59208 · /tle

For live sub-satellite position, see the globe view (requires WebGL).

§ Visibility from observer

Set your observer location to see the next 7 days of passes ≥ 10°. The values pass through the URL so the page stays shareable.

No JS? Fill the form by hand. The geolocation button needs JavaScript.